Location: Jackson Park
(37.2862°N, 79.9123°W)
Time: 10:41:08
(UTC+00:00)

S-56A Canister/Altair - Pass Details

Date: 12 May 2026
Orbit: 632 x 2484 km, 38.9° (Epoch: 9 June)

Event Time Altitude Azimuth Distance (km) Brightness Sun altitude
Rises 04:06:37 0° 265° (W) 2,917 10.7 -32.2°
Enters shadow 04:07:18 - 265° (W) 2,641 10.5 -32.3°
Reaches altitude 10° 04:08:46 10° 267° (W) 2,045 - -32.4°
Maximum altitude 04:13:19 78° 353° (N) 750 - -32.6°
Drops below altitude 10° 04:19:12 10° 81° (E) 2,619 - -33.0°
Sets 04:22:16 0° 83° (E) 3,821 - -33.1°
